"Pseudo-MPEC" for P12oAin

Created 2026 Jul 26 18:35:08 UT using Find_Orb

Click here for an explanation of pseudo-MPECs

 
 Astrometry: 
     P12oAin*0C2026 07 23.46103921 37 25.112+02 38 59.81   ~7NF5 22.33wXNEOCPF51
     P12oAin 0C2026 07 23.47329321 37 25.641+02 39 07.86   ~7NF5 22.04wXNEOCPF51
     P12oAin 0C2026 07 23.49834721 37 26.683+02 39 23.45   ~7NF5 22.11wXNEOCPF51
     P12oAin 0C2026 07 23.59791821 37 30.835+02 40 25.29   ~7O15 21.98GVNEOCPF51
     P12oAin 1C2026 07 24.41512721 38 13.511+02 48 45.30   ~7OH5 21.92GVNEOCPT12
     P12oAin 1C2026 07 24.41736521 38 13.597+02 48 46.75   ~7OH5 21.99GVNEOCPT12
     P12oAin 1C2026 07 24.41960421 38 13.694+02 48 48.13   ~7OH5 21.96GVNEOCPT12
     P12oAin 1C2026 07 25.43751221 39 03.564+02 58 47.76   ~7PD5 22.24GVNEOCPT12
     P12oAin 1C2026 07 25.43905921 39 03.623+02 58 48.61   ~7PD5 22.08GVNEOCPT12

Station data:
(F51) Pan-STARRS 1, Haleakala  (N20.707234 W156.255910)  US/Hawaii.
   Observers J. Herman, T. Lowe, P. Minguez, A. Schultz, I. Smith. Measurers
   K. Chambers, T. de Boer, J. Fairlamb, H. Gao, M. Huber, C.-C. Lin, E.
   Magnier, Y. Ramanjooloo, R. Wainscoat, R. Weryk. 1.8-m Ritchey-Chrétien +
   CCD.
(T12) Mauna Kea-UH/Tholen NEO Follow-Up (2.24-m)  (N19.822991 W155.469434)
   US/Hawaii.  Observer R. Weryk. 2.24-m f/10.1 University of Hawaii
   reflector.

Orbital elements:  P12oAin
   Perihelion 2026 Aug 21.487010 +/- 1.3 TT = 11:41:17.7 (JD 2461273.987010)
Epoch 2026 Jul 25.0 TT = JDT 2461246.5   Earth MOID: 0.3105   Ma: 0.0536
M 350.859831422 +/- 0.6             (J2000 ecliptic)             AutoNEOCP
n   0.332526834 +/- 0.00833         Peri.  121.031644 +/- 1.8
a   2.063407084 +/- 0.0345          Node   208.001513 +/- 0.8
e   0.36369224 +/- 0.00771          Incl.    4.309652 +/- 0.033
P   2.96399                H 22.71  G  0.15   U  9.5
q 1.312961939 +/- 0.00603    Q 2.813852229 +/- 0.0629
From 9 observations 2026 July 23-25 (47.5 hr); mean residual 0".11
Residuals in arcseconds: 
260723 F51  .28-  .20-    260723 F51  .02-  .13+    260724 T12  .04+  .01+    
260723 F51  .03+  .18+    260724 T12  .06+  .11-    260725 T12  .00   .04+    
260723 F51  .13+  .11+    260724 T12  .03-  .01-    260725 T12  .03-  .00     

Ephemerides (geocentric):
Date (UTC) HH   RA             Dec           delta  r     elong  mag " sig PA
---- --------  ------------   ------------  ------ ------ -----  --- --------
2026 07 26 19  21 40 07.792   +03 11 31.55  .35200 1.3333 150.5 22.1 .242  34
2026 07 26 20  21 40 09.752   +03 11 54.08  .35187 1.3332 150.5 22.1 .252  36
2026 07 26 21  21 40 11.710   +03 12 16.56  .35175 1.3331 150.6 22.1 .263  38
2026 07 26 22  21 40 13.666   +03 12 38.99  .35163 1.3331 150.6 22.1 .274  39
2026 07 26 23  21 40 15.620   +03 13 01.37  .35151 1.3330 150.6 22.1 .286  41
2026 07 27 00  21 40 17.573   +03 13 23.71  .35139 1.3329 150.6 22.1 .298  42
2026 07 27 01  21 40 19.523   +03 13 46.01  .35127 1.3329 150.7 22.1 .310  43
2026 07 27 02  21 40 21.471   +03 14 08.25  .35115 1.3328 150.7 22.1 .322  44
2026 07 27 03  21 40 23.418   +03 14 30.46  .35103 1.3328 150.7 22.1 .335  46
2026 07 27 04  21 40 25.362   +03 14 52.61  .35091 1.3327 150.7 22.1 .349  47
2026 07 27 05  21 40 27.305   +03 15 14.72  .35079 1.3326 150.7 22.1 .362  48
2026 07 27 06  21 40 29.245   +03 15 36.78  .35067 1.3326 150.8 22.1 .376  49
2026 07 27 07  21 40 31.184   +03 15 58.80  .35055 1.3325 150.8 22.1 .390  49
2026 07 27 08  21 40 33.121   +03 16 20.77  .35043 1.3324 150.8 22.1 .405  50
2026 07 27 09  21 40 35.056   +03 16 42.69  .35031 1.3324 150.8 22.1 .420  51
2026 07 27 10  21 40 36.989   +03 17 04.56  .35019 1.3323 150.9 22.1 .435  52
2026 07 27 11  21 40 38.920   +03 17 26.39  .35007 1.3322 150.9 22.1 .450  53
2026 07 27 12  21 40 40.849   +03 17 48.17  .34995 1.3322 150.9 22.1 .466  53
2026 07 27 13  21 40 42.776   +03 18 09.91  .34983 1.3321 150.9 22.1 .482  54
2026 07 27 14  21 40 44.701   +03 18 31.60  .34971 1.3321 151.0 22.1 .499  55
2026 07 27 15  21 40 46.625   +03 18 53.24  .34959 1.3320 151.0 22.1 .515  55
2026 07 27 16  21 40 48.546   +03 19 14.83  .34947 1.3319 151.0 22.1 .532  56
2026 07 27 17  21 40 50.466   +03 19 36.38  .34935 1.3319 151.0 22.1 .549  56
2026 07 27 18  21 40 52.383   +03 19 57.88  .34924 1.3318 151.0 22.1 .567  57
2026 07 27 19  21 40 54.299   +03 20 19.33  .34912 1.3317 151.1 22.1 .585  57
2026 07 27 20  21 40 56.213   +03 20 40.74  .34900 1.3317 151.1 22.1 .603  58
2026 07 27 21  21 40 58.125   +03 21 02.10  .34888 1.3316 151.1 22.1 .621  58
2026 07 27 22  21 41 00.035   +03 21 23.41  .34877 1.3316 151.1 22.1 .640  59
2026 07 27 23  21 41 01.943   +03 21 44.67  .34865 1.3315 151.2 22.1 .659  59
2026 07 28 00  21 41 03.849   +03 22 05.89  .34853 1.3314 151.2 22.1 .678  60
2026 07 28 01  21 41 05.754   +03 22 27.05  .34842 1.3314 151.2 22.1 .697  60
2026 07 28 02  21 41 07.656   +03 22 48.17  .34830 1.3313 151.2 22.1 .717  60
2026 07 28 03  21 41 09.557   +03 23 09.25  .34818 1.3312 151.3 22.1 .737  61
2026 07 28 04  21 41 11.455   +03 23 30.27  .34807 1.3312 151.3 22.1 .757  61
2026 07 28 05  21 41 13.352   +03 23 51.25  .34795 1.3311 151.3 22.1 .778  62
2026 07 28 06  21 41 15.247   +03 24 12.18  .34783 1.3311 151.3 22.1 .798  62
2026 07 28 07  21 41 17.140   +03 24 33.06  .34772 1.3310 151.3 22.1 .819  62
2026 07 28 08  21 41 19.031   +03 24 53.90  .34760 1.3309 151.4 22.1 .841  63
2026 07 28 09  21 41 20.920   +03 25 14.68  .34749 1.3309 151.4 22.1 .862  63
2026 07 28 10  21 41 22.807   +03 25 35.42  .34737 1.3308 151.4 22.1 .884  63
2026 07 28 11  21 41 24.693   +03 25 56.11  .34726 1.3308 151.4 22.1 .906  63
2026 07 28 12  21 41 26.576   +03 26 16.75  .34714 1.3307 151.5 22.1 .929  64
2026 07 28 13  21 41 28.458   +03 26 37.34  .34703 1.3306 151.5 22.1 .951  64
2026 07 28 14  21 41 30.338   +03 26 57.89  .34691 1.3306 151.5 22.1 .974  64
2026 07 28 15  21 41 32.215   +03 27 18.39  .34680 1.3305 151.5 22.1 1.00  64
2026 07 28 16  21 41 34.091   +03 27 38.83  .34668 1.3305 151.5 22.1 1.02  65
2026 07 28 17  21 41 35.966   +03 27 59.23  .34657 1.3304 151.6 22.1 1.04  65
2026 07 28 18  21 41 37.838   +03 28 19.59  .34646 1.3303 151.6 22.1 1.07  65